Regional Weather Roundup
Issued by NWS

Home | Current Version | Previous Version | Text Only | Print | Product List | Glossary Off
Versions: 1 2 3 4 5 6 7 8 9 10 11 12 13 14 15 16 17 18 19 20 21 22 23 24 25 26 27 28 29 30 31 32 33 34 35 36 37 38 39 40 41 42 43 44 45 46 47 48 49 50

000
ASUS45 KABQ 222001
RWRNM
WEATHER ROUNDUP FOR NEW MEXICO
NATIONAL WEATHER SERVICE ALBUQUERQUE NM
200 PM MDT WED OCT 22 2014

NOTE: "FAIR" MEANS FEW OR NO CLOUDS BELOW 12,000 FEET AGL WITH NO
       SIGNIFICANT WEATHER OR OBSTRUCTIONS TO VISION.

      THIS PRODUCT IS RELEASED AS TWO VERSIONS.  ONE VERSION NEAR
      THE TOP OF THE HOUR CONTAINING PRELIMINARY DATA FROM ALBUQUERQUE
      AND OTHER STATIONS.  A FINAL VERSION WITH ADDITIONAL DATA IS
      ISSUED ABOUT 10 MINUTES AFTER THE HOUR.

NMZ501-503-504-510>518-222100-
NORTHWEST PLATEAU/NORTHCENTRAL MOUNTAINS

CITY           SKY/WX    TMP DP  RH WIND       PRES   REMARKS
FARMINGTON     SUNNY     68  38  33 SW5       30.15F
LOS ALAMOS     MOSUNNY   60  42  51 SE3       30.24F
SANTA FE       CLOUDY    65  44  46 SE6       30.18F
TAOS           MOSUNNY   64  37  36 SW8       30.21F
ANGEL FIRE     FAIR      58  32  36 SW14G20   30.27S

$$
NMZ402-403-502-505>509-222100-
WESTCENTRAL MOUNTAINS/SOUTHWEST MOUNTAINS

CITY           SKY/WX    TMP DP  RH WIND       PRES   REMARKS
GALLUP         SUNNY     67  35  30 W7G17     30.20F
GRANTS         MOSUNNY   68  34  28 NE3       30.22F
SILVER CITY    SUNNY     68  50  52 S9        30.19F

$$
NMZ407-409-411-412-222100-
SOUTHERN DESERTS

CITY           SKY/WX    TMP DP  RH WIND       PRES   REMARKS
LORDSBURG      FAIR      73  52  46 MISG      30.11F
DEMING         SUNNY     70  53  54 CALM      30.12F
LAS CRUCES     PTSUNNY   70  52  53 CALM      30.14F
HOLLOMAN AFB   SUNNY     71  55  57 S7        30.10F
T OR C         SUNNY     71  48  43 S6        30.13F

$$
NMZ519>523-222100-
CENTRAL VALLEYS/CENTRAL HIGHLANDS

CITY           SKY/WX    TMP DP  RH WIND       PRES   REMARKS
ALBUQUERQUE    PTSUNNY   69  44  40 W5        30.16F
DOUBLE EAGLE   PTSUNNY   66  43  42 E3        30.18F
MORIARTY ARPT  FAIR      68  38  33 CALM      30.19F
CLINES CORNERS MOSUNNY   63  39  41 NW9       30.20F
BELEN          FAIR      72  40  31 W3        30.15F
SOCORRO        FAIR      73  49  42 SE3       30.13F

$$
NMZ524>526-539-540-222100-
SOUTHCENTRAL MOUNTAINS

CITY           SKY/WX    TMP DP  RH WIND       PRES   REMARKS
RUIDOSO        MOSUNNY   64  45  48 MISG      30.23F

$$
NMZ527>531-222100-
NORTHEAST HIGHLANDS/NORTHEAST PLAINS

CITY           SKY/WX    TMP DP  RH WIND       PRES   REMARKS
LAS VEGAS      PTSUNNY   69  35  28 NE7       30.17F
RATON          SUNNY     70  33  25 S8        30.11F
CLAYTON        SUNNY     75  38  26 N12       30.07F

$$
NMZ532>537-222100-
EASTCENTRAL PLAINS

CITY           SKY/WX    TMP DP  RH WIND       PRES   REMARKS
TUCUMCARI      MOSUNNY   78  51  38 SW12      30.03F
CANNON AFB     MOSUNNY   71  54  55 SW8       30.09F
CLOVIS AIRPORT MOSUNNY   72  54  53 SW7       30.11F

$$
NMZ028-029-538-222100-
SOUTHEAST PLAINS

CITY           SKY/WX    TMP DP  RH WIND       PRES   REMARKS
ROSWELL        MOSUNNY   72  57  59 S9        30.08F
CARLSBAD       SUNNY     72  59  63 CALM      30.07F
HOBBS          PTSUNNY   70  57  64 S6        30.11F


$$



USA.gov is the U.S. government's official web portal to all federal, state and local government web resources and services.